Aérodrome :
LOGIN :

S'inscrire | Disclaimer

   EN    FR    IT 

 










Légende :    VFR   VFR Marginal   IFR   IFR Intensif   IFR Très Intensif
Visi : 
Plafond : 
>= 8 km
>= 3000ft
5 à 8 km
1000 à 3000 ft
1500m à 5 km
500 à 1000 ft
800 à 1500m
200 à 500 ft
< 800m
< 200 ft
Symboles :   Orages  Brouillard  Fortes neiges  Fortes précipitations  Vent > 20 kt
SIGMETs :   Divers  Orages  Givrage  Turbulence  Onde Orograph.  Cendres Volcan.







- Altitude de l'aérodrome : 1306 ft
- Code IATA : ACH


LSZR - Alten Rhein

DERNIER METAR :
  • 200120Z AUTO VRB02KT 9999 BKN060 14/12 Q1023

METARs EXPIRÉS :
  • 200050Z AUTO 15004KT 110V180 9999 BKN044CB 14/12 Q1023 RETSRA
  • 200020Z AUTO VRB02KT 9999 -RA SCT043 SCT050 13/12 Q1023
  • 192350Z AUTO 27003KT 240V330 9999 BKN035 16/13 Q1023
  • 192320Z AUTO 32004KT 280V360 9999 BKN030 17/13 Q1023 RETS
  • 192250Z AUTO VRB02KT 9999 FEW040 BKN050 16/14 Q1023

Prévision TAF périmée.
ATIS : +41 71 858 51 66
Pas de NOTAMs connus pour ce terrain.



MET'MAP, la Météo Aéronautique d'un coup d'oeil ! - Copyright ORBIFLY Décembre 2007 - Disclaimer

ORBIFLY MET'MAP TEAM :

Programmation & Développement : Alexandra Zaïnal
Conception & Développement : Baudouin d'Aumeries
Co-Programmation & Développement : Marc-Olivier Méhu
Soutien technique & logistique : Manuel Goepfert

Contact : metmap@orbifly.com




SOURCES & CREDITS :

   NOAA